Location: Rumah Dana
(3.1167°N, 113.0167°E)
Time: 03:58:39
(UTC+00:00)

GP-B - Pass Details

Date: 20 January 2026
Orbit: 618 x 622 km, 89.8° (Epoch: 10 February)

Event Time Altitude Azimuth Distance (km) Brightness Sun altitude
Rises 11:19:13 0° 156° (SSE) 2,896 6.5 -10.5°
Reaches altitude 10° 11:21:42 10° 144° (SE) 1,988 5.5 -11.1°
Maximum altitude 11:25:23 27° 86° (E) 1,204 4.0 -12.0°
Enters shadow 11:28:49 11° 30° (NNE) 1,906 5.1 -12.8°
